Back to catalog

LIDE

AliveScienceSSO
NORAD 64869·PAYLOAD·🇮🇹 Italy

Launched Jul 23, 2025 from Vandenberg Space Force Base

Loading…

Next Passes (next 24 hours)

TLE

FreshSource: Space-Track

Epoch: Sep 14, 2026, 10:26 UTC

1 64869U 25154A   26257.43507492  .00002251  00000-0  21188-3 0  9999
2 64869  97.6628 319.2366 0003972 298.8962  61.1860 14.94832842 62339

Track LIDE in real time with AllMySat

Download on the App Store